[[{"header":{"parameterUnit":"m.s-1","parameterCategory":1,"la1":30.2991,"la2":30.254,"lo1":-89.0895,"lo2":-89.0444,"dy":0.0017,"dx":0.0017,"nx":28,"ny":28,"refTime":"2025-12-28T03:00:00:Z","depth":0,"parameterNumber":2,"parameterNumberName":"U-component_of_WINDS"},"data":[0,0,0,0,0,0,0,0,0,0,0,0,0,0,0,0,0,0,0,0,0,0,0,0,0,0,0,0,0,0,0,0,0,0,0,0,0,0,0,0,0,0,0,0,0,0,0,0,0,0,0,0,0,0,0,0,0,0,-0.4653,-0.4653,0,-0.4601,-0.46,-0.4599,-0.459,-0.4591,-0.4591,-0.4592,-0.4534,-0.4532,-0.453,0,0,0,0,0,0,0,0,0,0,0,0,0,-0.4741,-0.474,-0.4653,-0.4652,-0.4652,-0.4601,-0.46,-0.4599,-0.459,-0.4591,-0.4591,-0.4592,-0.4535,-0.4532,-0.453,0,0,0,0,0,0,0,0,0,0,0,0,0,-0.4697,-0.4739,-0.4653,-0.4641,-0.464,-0.4601,-0.46,-0.4599,-0.459,-0.4591,-0.4591,-0.4592,-0.4535,-0.4533,-0.453,-0.4498,0,0,-0.4521,-0.452,0,0,0,0,0,0,0,0,-0.47,-0.4694,-0.4644,-0.4642,-0.464,-0.4603,-0.461,-0.4565,-0.459,-0.4609,-0.4592,-0.4592,-0.4556,-0.4552,-0.454,-0.4495,-0.4493,-0.4521,-0.4519,-0.4517,-0.4517,0,0,0,0,0,0,0,-0.4703,-0.4696,-0.4632,-0.4643,-0.4641,-0.4637,-0.4632,-0.4601,-0.4579,-0.4607,-0.4606,-0.4601,-0.4555,-0.4543,-0.4539,-0.4492,-0.4521,-0.4518,-0.4516,-0.4515,-0.4417,-0.4416,0,0,0,0,0,0,-0.4708,-0.4699,-0.4634,-0.4631,-0.4672,-0.4635,-0.4629,-0.4614,-0.458,-0.4575,-0.46,-0.46,-0.4548,-0.4542,-0.4537,-0.4496,-0.4518,-0.4515,-0.4513,-0.4417,-0.4416,-0.4416,0,0,0,0,0,0,-0.471,-0.4703,-0.4636,-0.4664,-0.4656,-0.4633,-0.4616,-0.4613,-0.46,-0.4574,-0.457,-0.4592,-0.4548,-0.4541,-0.4508,-0.4494,-0.4513,-0.4511,-0.4418,-0.4417,-0.4416,-0.4415,0,0,0,0,0,0,-0.4713,-0.4704,-0.4692,-0.4664,-0.4654,-0.4609,-0.4615,-0.4611,-0.4596,-0.4596,-0.4565,-0.4561,-0.4548,-0.4512,-0.4505,-0.449,-0.4508,-0.442,-0.4418,-0.4416,-0.4416,-0.4414,-0.4412,0,0,0,0,0,-0.4716,-0.4694,-0.4692,-0.4684,-0.464,-0.4609,-0.4603,-0.4589,-0.4595,-0.4582,-0.4565,-0.4562,-0.4497,-0.4509,-0.45,-0.4485,-0.442,-0.4418,-0.4416,-0.4417,-0.4414,-0.4412,0,0,0,0,0,0,-0.472,-0.469,-0.4687,-0.4656,-0.4635,-0.4607,-0.4591,-0.4587,-0.4563,-0.4564,-0.4547,-0.454,-0.4508,-0.4493,-0.4507,-0.4451,-0.4459,-0.4455,-0.4462,-0.4459,-0.4457,-0.446,-0.4506,0,0,0,0,0,-0.4717,-0.4695,-0.467,-0.4644,-0.4634,-0.4614,-0.46,-0.4592,-0.4569,-0.456,-0.454,-0.4517,-0.4491,-0.4475,-0.445,-0.4414,-0.4406,-0.4399,-0.4397,-0.4395,-0.4392,-0.437,-0.4366,-0.4409,-0.4409,-0.4409,0,0,-0.4711,-0.4692,-0.4679,-0.4644,-0.4627,-0.4603,-0.4607,-0.4582,-0.4564,-0.4556,-0.4523,-0.4508,-0.4481,-0.4446,-0.443,-0.4433,-0.4378,-0.4393,-0.4392,-0.4389,-0.4368,-0.4364,-0.436,-0.4408,-0.4408,-0.4408,0,0,-0.4687,-0.4671,-0.4648,-0.463,-0.4605,-0.4592,-0.4586,-0.4558,-0.4548,-0.4516,-0.4509,-0.4486,-0.4442,-0.4423,-0.4407,-0.4375,-0.437,-0.4367,-0.4356,-0.4335,-0.4331,-0.4328,-0.4315,-0.431,-0.4364,-0.4364,-0.4364,0,-0.4682,-0.4647,-0.4635,-0.461,-0.4594,-0.4587,-0.4562,-0.4545,-0.4512,-0.45,-0.4505,-0.4449,-0.443,-0.439,-0.4382,-0.437,-0.4362,-0.437,-0.4333,-0.433,-0.4326,-0.4313,-0.4309,-0.4364,-0.4364,-0.4364,-0.4364,0,-0.4642,-0.4618,-0.4601,-0.457,-0.4552,-0.4527,-0.451,-0.4493,-0.4486,-0.4472,-0.4438,-0.4415,-0.4385,-0.4375,-0.4368,-0.4333,-0.4335,-0.4337,-0.4343,-0.4322,-0.431,-0.4305,-0.4364,-0.4364,-0.4364,-0.4364,0,0,-0.4619,-0.4581,-0.4575,-0.456,-0.4531,-0.4511,-0.4485,-0.4456,-0.4441,-0.4418,-0.4394,-0.4358,-0.4358,-0.434,-0.4331,-0.4312,-0.4286,-0.4315,-0.4314,-0.4309,-0.4244,-0.4242,-0.4237,-0.4283,-0.4282,-0.4281,-0.4246,0,-0.459,-0.4544,-0.4532,-0.4493,-0.4469,-0.4461,-0.4438,-0.4417,-0.4403,-0.4379,-0.4364,-0.4337,-0.4341,-0.433,-0.4311,-0.4293,-0.4272,-0.4296,-0.4259,-0.4258,-0.4264,-0.423,-0.4229,-0.4196,-0.4241,-0.424,-0.4239,0,-0.4551,-0.4528,-0.4486,-0.4459,-0.4448,-0.4428,-0.4399,-0.4378,-0.4353,-0.4344,-0.4323,-0.4315,-0.4286,-0.4295,-0.4253,-0.4269,-0.4253,-0.4242,-0.424,-0.4235,-0.4246,-0.4222,-0.4185,-0.418,-0.4232,-0.4232,-0.4233,0,-0.4536,-0.4495,-0.4464,-0.4452,-0.4419,-0.4404,-0.439,-0.4366,-0.4348,-0.4323,-0.4312,-0.4283,-0.4267,-0.4244,-0.4228,-0.4237,-0.4186,-0.4195,-0.4176,-0.4177,-0.4165,-0.4165,-0.4123,-0.4158,-0.4158,-0.4158,-0.4158,0,-0.4505,-0.4479,-0.4456,-0.4437,-0.4408,-0.4393,-0.4364,-0.4349,-0.4327,-0.4303,-0.4295,-0.4273,-0.4254,-0.4228,-0.4215,-0.4181,-0.4174,-0.4164,-0.4161,-0.4164,-0.4165,-0.4152,-0.4153,-0.4156,-0.4157,-0.4157,-0.4157,0,-0.4483,-0.4467,-0.4432,-0.4405,-0.4397,-0.4376,-0.4351,-0.4331,-0.4317,-0.4287,-0.4279,-0.4256,-0.4226,-0.4208,-0.4169,-0.416,-0.4122,-0.412,-0.4131,-0.4129,-0.411,-0.4111,-0.4056,-0.4047,-0.409,-0.409,-0.4089,0,-0.4463,-0.4443,-0.4413,-0.4397,-0.4382,-0.4357,-0.434,-0.4324,-0.4306,-0.4275,-0.4258,-0.4228,-0.4202,-0.4154,-0.4133,-0.4103,-0.4099,-0.4082,-0.4094,-0.4098,-0.4096,-0.4097,-0.4094,-0.4079,-0.4079,-0.4078,-0.4078,0,-0.4429,-0.4422,-0.4398,-0.437,-0.435,-0.4327,-0.4304,-0.4292,-0.4272,-0.4252,-0.4221,-0.4201,-0.4162,-0.4131,-0.4099,-0.4082,-0.4076,-0.4075,-0.4068,-0.407,-0.4076,-0.4071,-0.4123,-0.4076,-0.4076,-0.4076,-0.4076,-0.4076,-0.4406,-0.4387,-0.4363,-0.4336,-0.4317,-0.4296,-0.4275,-0.4259,-0.4233,-0.42,-0.4193,-0.416,-0.4133,-0.409,-0.4072,-0.4045,-0.4048,-0.4039,-0.4036,-0.4034,-0.4032,-0.4082,-0.4039,-0.4039,-0.4039,-0.4039,-0.404,0,-0.437,-0.4354,-0.4329,-0.4298,-0.4276,-0.4274,-0.4248,-0.4229,-0.4201,-0.4177,-0.4152,-0.4116,-0.4085,-0.4062,-0.403,-0.4012,-0.4009,-0.4004,-0.4004,-0.4,-0.4033,-0.4041,-0.4008,-0.4008,-0.4008,-0.4008,-0.4008,-0.4008,-0.4349,-0.4316,-0.4306,-0.4263,-0.4247,-0.4215,-0.4201,-0.418,-0.4161,-0.4121,-0.4096,-0.4081,-0.4057,-0.4023,-0.3994,-0.3988,-0.3976,-0.3971,-0.3964,-0.3995,-0.3998,-0.4001,-0.4009,-0.3969,-0.3969,-0.3934,-0.3933,-0.3933]},{"header":{"parameterUnit":"m.s-1","parameterCategory":1,"la1":30.2991,"la2":30.254,"lo1":-89.0895,"lo2":-89.0444,"dy":0.0017,"dx":0.0017,"nx":28,"ny":28,"refTime":"2025-12-28T03:00:00:Z","depth":0,"parameterNumber":3,"parameterNumberName":"V-component_of_WINDS"},"data":[0,0,0,0,0,0,0,0,0,0,0,0,0,0,0,0,0,0,0,0,0,0,0,0,0,0,0,0,0,0,0,0,0,0,0,0,0,0,0,0,0,0,0,0,0,0,0,0,0,0,0,0,0,0,0,0,0,0,2.3859,2.386,0,2.3979,2.3981,2.3982,2.4012,2.4011,2.401,2.401,2.4135,2.4139,2.4143,0,0,0,0,0,0,0,0,0,0,0,0,0,2.3657,2.3661,2.3859,2.386,2.3862,2.3979,2.3981,2.3982,2.4012,2.4011,2.401,2.4009,2.4133,2.4138,2.4143,0,0,0,0,0,0,0,0,0,0,0,0,0,2.3758,2.3662,2.3858,2.3891,2.3895,2.3979,2.3981,2.3983,2.4012,2.4011,2.401,2.4009,2.4132,2.4138,2.4144,2.4205,0,0,2.4162,2.4165,0,0,0,0,0,0,0,0,2.3752,2.3765,2.3884,2.3889,2.3893,2.3979,2.3956,2.4057,2.4013,2.3968,2.401,2.4008,2.4084,2.4094,2.4119,2.4211,2.4216,2.4163,2.4167,2.4169,2.4171,0,0,0,0,0,0,0,2.3745,2.376,2.3906,2.3886,2.3892,2.39,2.3913,2.3975,2.4031,2.3972,2.3974,2.3988,2.4086,2.4113,2.4122,2.4218,2.4163,2.4168,2.4172,2.4174,2.4368,2.437,0,0,0,0,0,0,2.3732,2.3754,2.3903,2.391,2.3818,2.3905,2.3919,2.3953,2.403,2.4041,2.3989,2.3989,2.4104,2.4115,2.4127,2.4206,2.4169,2.4175,2.4178,2.4367,2.4369,2.437,0,0,0,0,0,0,2.3728,2.3745,2.3898,2.3833,2.3853,2.3909,2.3947,2.3956,2.3983,2.4043,2.4054,2.4006,2.4103,2.4118,2.4186,2.4211,2.4178,2.4183,2.4365,2.4368,2.437,2.4363,0,0,0,0,0,0,2.3722,2.3743,2.3766,2.3833,2.3856,2.3954,2.3948,2.3959,2.3993,2.3994,2.4062,2.4072,2.4103,2.4177,2.4192,2.4218,2.4188,2.4363,2.4366,2.4369,2.4361,2.4364,2.4367,0,0,0,0,0,2.3715,2.3759,2.3767,2.3785,2.3886,2.3955,2.3968,2.4003,2.3995,2.4019,2.4059,2.407,2.4205,2.4183,2.4201,2.4229,2.4362,2.4365,2.4369,2.436,2.4364,2.4367,0,0,0,0,0,0,2.3694,2.3769,2.3778,2.3846,2.3894,2.396,2.3991,2.4005,2.4057,2.4056,2.4097,2.4112,2.4177,2.421,2.4184,2.4294,2.4284,2.4291,2.4271,2.4275,2.4278,2.427,2.4193,0,0,0,0,0,2.3697,2.3746,2.3809,2.3862,2.3886,2.3934,2.3966,2.3988,2.404,2.406,2.4104,2.4155,2.4209,2.4243,2.4296,2.4365,2.4382,2.4394,2.4397,2.4399,2.4406,2.4447,2.4454,2.4382,2.4382,2.4381,0,0,2.3705,2.3751,2.378,2.386,2.3899,2.3951,2.3951,2.4005,2.4044,2.4069,2.4136,2.417,2.4229,2.4298,2.4331,2.4327,2.4429,2.4404,2.4405,2.441,2.4452,2.4458,2.4465,2.4384,2.4383,2.4383,0,0,2.3745,2.3784,2.3834,2.3874,2.3935,2.3967,2.3979,2.4043,2.4067,2.4135,2.4155,2.4202,2.4294,2.4336,2.4369,2.4427,2.4441,2.4443,2.446,2.45,2.4506,2.4512,2.4535,2.4542,2.4448,2.4448,2.4448,0,2.3747,2.3824,2.3858,2.3912,2.3947,2.3972,2.4024,2.4062,2.4136,2.4161,2.4155,2.4272,2.4313,2.4394,2.4409,2.4434,2.4451,2.4436,2.4502,2.4508,2.4514,2.4536,2.4545,2.4448,2.4448,2.4448,2.4448,0,2.3825,2.3878,2.3911,2.3983,2.4022,2.4075,2.4119,2.4154,2.4173,2.4206,2.4276,2.4327,2.4391,2.4412,2.4431,2.4496,2.4492,2.4494,2.4485,2.452,2.4542,2.4551,2.4448,2.4448,2.4448,2.4448,0,0,2.3856,2.3947,2.3959,2.3993,2.4062,2.4104,2.4159,2.4222,2.4253,2.4303,2.4352,2.4429,2.4432,2.4469,2.4493,2.4528,2.4574,2.4526,2.4528,2.4536,2.4653,2.4653,2.4662,2.4583,2.4585,2.4586,2.4649,0,2.3907,2.4004,2.4038,2.4119,2.417,2.4195,2.4242,2.4291,2.4323,2.4372,2.4408,2.4464,2.4462,2.4485,2.4521,2.4561,2.4599,2.4557,2.463,2.4632,2.4617,2.4673,2.4673,2.473,2.4657,2.4659,2.466,0,2.3979,2.4031,2.4118,2.4183,2.4205,2.4247,2.4309,2.4355,2.4411,2.4432,2.4475,2.4497,2.4557,2.4542,2.4626,2.4597,2.4629,2.4653,2.4656,2.4666,2.465,2.4687,2.4748,2.4758,2.4673,2.4672,2.4671,0,2.3997,2.4088,2.4153,2.4181,2.4257,2.4287,2.432,2.4375,2.4411,2.4465,2.449,2.455,2.4583,2.463,2.4668,2.4653,2.4749,2.4737,2.4771,2.477,2.4792,2.479,2.4861,2.4808,2.4808,2.4807,2.4807,0,2.4051,2.4104,2.4162,2.4202,2.4263,2.4301,2.436,2.4395,2.4443,2.4492,2.4516,2.4561,2.4607,2.4658,2.4688,2.4755,2.4769,2.4789,2.4797,2.4789,2.4787,2.4812,2.481,2.481,2.4809,2.4809,2.4808,0,2.4082,2.4123,2.4195,2.4261,2.4279,2.4321,2.4379,2.442,2.4453,2.4514,2.453,2.4584,2.4646,2.4688,2.4767,2.4787,2.486,2.4866,2.4841,2.4846,2.4878,2.4875,2.497,2.4985,2.4919,2.4919,2.492,0,2.4115,2.4157,2.4228,2.4262,2.4295,2.4349,2.4387,2.4426,2.4465,2.4532,2.4565,2.4629,2.4682,2.478,2.4827,2.4888,2.4897,2.4926,2.4906,2.4897,2.4901,2.4899,2.4905,2.493,2.493,2.493,2.4931,0,2.4172,2.419,2.4243,2.4304,2.4348,2.4398,2.4448,2.4474,2.4523,2.4565,2.4629,2.467,2.4751,2.4815,2.4881,2.4916,2.4933,2.4936,2.4948,2.4941,2.4926,2.4937,2.4853,2.4934,2.4934,2.4934,2.4934,2.4933,2.4207,2.4246,2.4302,2.4361,2.4403,2.4449,2.4492,2.4531,2.4584,2.4654,2.4673,2.4741,2.4797,2.4887,2.4924,2.4978,2.4976,2.4991,2.4996,2.5,2.5002,2.4915,2.499,2.499,2.499,2.499,2.499,0,2.4267,2.4305,2.4358,2.4428,2.4475,2.4485,2.4541,2.458,2.4638,2.469,2.4742,2.4816,2.4878,2.493,2.4994,2.5028,2.5037,2.5044,2.5043,2.5051,2.4999,2.4984,2.5035,2.5035,2.5035,2.5035,2.5035,2.5035,2.4304,2.4371,2.4396,2.4485,2.4523,2.4588,2.462,2.4664,2.4705,2.4787,2.4839,2.4872,2.4924,2.4993,2.5051,2.5064,2.5088,2.5094,2.5109,2.506,2.5055,2.505,2.5036,2.5098,2.5098,2.5158,2.5159,2.5159]}]]